sat.trackr.live / text

‹ back to catalog

STARLINK-31179

NORAD 58750 · 2024-005Y

PAYLOAD ACTIVE UNKNOWN

§ Identity

Operator
Country
US
Launch date
2024-01-07
Launch site
AFETR
Launch vehicle
Mass (kg)
RCS (m²)

Purposes: comms

External: N2YO · Heavens-Above · Gunter

§ Orbital elements

Epoch: 2026-05-24T11:42:59.225472Z

Period
94.27 min
Inclination
43.0034°
Eccentricity
0.0001777
Mean motion
15.27577772 rev/d
Perigee alt
481.8 km
Apogee alt
484.3 km
Semi-major
6,861.2 km
B*
6.1253e-5
RAAN
151.8919°
Arg perigee
277.3640°
Mean anomaly
82.7010°
Rev number
13,203

§ Raw data

STARLINK-311791 58750U 24005Y   26144.48818548  .00001423  00000+0  61253-4 0  99992 58750  43.0034 151.8919 0001777 277.3640  82.7010 15.27577772132033

JSON: /api/v1/satellites/58750 · /tle

For live sub-satellite position, see the globe view (requires WebGL).

§ Visibility from observer

Set your observer location to see the next 7 days of passes ≥ 10°. The values pass through the URL so the page stays shareable.

No JS? Fill the form by hand. The geolocation button needs JavaScript.